FW1313 Weather Reports


Display with metric or nautical units.
time (UTC)temp
F
wind
direction
speed
MPH
gust
MPH
rain 1hr
in
rain 24hr
in
rain mn
in
humidity
%
barometer
mb
20260508130359 59 12 0.0 0.0 0.00 0.00 0.00 30 1015.4
20260508123359 59 12 0.0 0.0 0.00 0.00 0.00 26 1015.4
20260508120359 58 6 0.0 0.0 0.00 0.00 0.00 28 1015.5
20260508113359 58 9 0.0 0.0 0.00 0.00 0.00 30 1015.6
20260508110359 58 336 0.0 0.0 0.00 0.00 0.00 29 1016.0
20260508103402 58 351 0.0 0.0 0.00 0.00 0.00 31 1016.2
20260508100402 57 316 0.0 0.0 0.00 0.00 0.00 34 1016.4
20260508093359 58 315 0.0 2.0 0.00 0.00 0.00 33 1016.6
20260508090359 58 326 0.0 0.0 0.00 0.00 0.00 35 1017.0
20260508083402 58 310 0.0 1.0 0.00 0.00 0.00 37 1017.4
20260508080402 59 304 0.0 0.0 0.00 0.00 0.00 38 1018.1
20260508073359 59 315 0.0 1.0 0.00 0.00 0.00 36 1018.4
20260508070359 60 311 0.0 1.0 0.00 0.00 0.00 35 1018.8
20260508063402 60 318 0.0 0.0 0.00 0.00 0.00 37 1019.0
20260508060359 59 319 0.0 0.0 0.00 0.00 0.00 40 1019.3
20260508053359 59 325 0.0 0.0 0.00 0.00 0.00 42 1019.6
20260508050359 59 307 0.0 0.0 0.00 0.00 0.00 42 1019.7
20260508043359 60 307 0.0 0.0 0.00 0.00 0.00 41 1019.7
20260508040359 59 63 0.0 0.0 0.00 0.00 0.00 42 1019.5
20260508033359 59 6 0.0 0.0 0.00 0.00 0.00 45 1019.3
20260508030402 59 349 0.0 0.0 0.00 0.00 0.00 44 1019.1
20260508023359 60 143 0.0 0.0 0.00 0.00 0.00 42 1018.9
20260508020359 62 225 0.0 0.0 0.00 0.00 0.00 40 1018.9
20260508013402 64 229 0.0 0.0 0.00 0.00 0.00 40 1018.7
20260508010359 65 159 0.0 0.0 0.00 0.00 0.00 41 1018.6
20260508003402 66 167 0.0 1.0 0.00 0.00 0.00 37 1018.4
20260508000359 67 201 0.0 0.0 0.00 0.00 0.00 42 1018.3
20260507233359 68 186 0.0 0.0 0.00 0.00 0.00 42 1018.0
20260507230359 68 201 0.0 0.0 0.00 0.00 0.00 40 1017.8
20260507223359 68 260 0.0 0.0 0.00 0.00 0.00 41 1017.7
20260507220359 68 225 0.0 1.0 0.00 0.00 0.00 38 1017.8
20260507213359 69 198 0.0 1.0 0.00 0.00 0.00 39 1017.9
20260507210359 69 218 0.0 0.0 0.00 0.00 0.00 34 1018.0
20260507203359 71 198 0.0 1.0 0.00 0.00 0.00 34 1017.8
20260507200359 71 145 0.0 0.0 0.00 0.00 0.00 34 1017.7
20260507193402 71 252 0.0 1.0 0.00 0.00 0.00 39 1017.6
20260507190359 72 266 0.0 0.0 0.00 0.00 0.00 34 1017.8
20260507183359 71 215 0.0 0.0 0.00 0.00 0.00 37 1017.8
20260507180359 69 68 0.0 0.0 0.00 0.00 0.00 36 1017.8
20260507173359 66 318 0.0 1.0 0.00 0.00 0.00 36 1017.8
20260507170402 64 313 0.0 0.0 0.00 0.00 0.00 38 1017.5
20260507163359 62 256 0.0 0.0 0.00 0.00 0.00 38 1017.7
20260507160359 59 285 0.0 0.0 0.00 0.00 0.00 39 1017.8
20260507153402 59 277 0.0 0.0 0.00 0.00 0.00 41 1017.7
20260507150359 58 1 0.0 0.0 0.00 0.00 0.00 38 1017.8
20260507143359 57 27 0.0 0.0 0.00 0.00 0.00 42 1017.8
20260507140359 55 27 0.0 0.0 0.00 0.00 0.00 44 1017.8
20260507133402 55 29 0.0 0.0 0.00 0.00 0.00 44 1017.6